Location: Helsinki
(60.1699°N, 24.9384°E)
Time: 11:54:06
(UTC+02:00)

Transit 2A Rocket - Pass Details

Date: 29 September 2023
Orbit: 593 x 903 km, 66.7° (Epoch: 06 December)

Event Time Altitude Azimuth Distance (km) Brightness Sun altitude
Rises 22:53:03 0° 309° (NW) 3,005 9.3 -26.7°
Reaches altitude 10° 22:55:30 10° 303° (WNW) 2,047 8.1 -26.9°
Enters shadow 22:59:01 39° 262° (W) 943 5.6 -27.1°
Maximum altitude 22:59:49 43° 233° (SW) 871 - -27.2°
Drops below altitude 10° 23:03:56 10° 161° (SSE) 1,940 - -27.5°
Sets 23:06:12 0° 155° (SSE) 2,828 - -27.7°
